Theta_e
335 334 333 335 334 333 330 329 326 325 323 324 327 326 326 326 325 324 325 326 327 328 328 327 324 326 326 326 326 327 330 331 330 329 330 330 330 330 331 332 333 334 335
330 332 332 331 328 327 325 322 322 321 321 323 325 326 326 325 324 324 324 326 329 328 325 325 326 325 326 325 326 327 329 328 329 328 328 328 328 329 329 332 332 333 333
329 332 328 328 326 326 324 323 321 322 322 324 322 323 322 324 323 323 324 324 327 328 327 327 325 325 325 325 326 327 327 327 326 326 326 326 326 327 328 329 330 331 331
326 326 326 326 328 327 325 322 323 320 321 317 317 317 318 323 323 323 322 324 324 325 326 326 324 323 323 324 326 327 326 326 325 325 325 325 324 325 325 327 328 329 329
322 322 322 322 325 323 321 321 320 317 315 315 315 315 318 321 322 321 321 322 323 323 325 325 323 322 322 323 324 325 325 325 324 324 324 323 322 323 324 324 325 327 328
326 328 326 327 327 325 324 323 323 318 317 315 312 316 321 321 321 320 320 320 320 321 322 325 327 325 321 321 322 322 323 323 323 323 322 321 321 322 322 324 325 326 326
320 325 320 321 325 325 326 326 323 321 319 319 318 316 318 321 321 319 323 322 321 319 321 321 322 323 325 321 320 320 322 322 323 322 320 320 319 320 321 322 324 324 325
321 319 323 320 323 320 325 326 325 322 319 319 314 314 309 315 316 319 321 319 319 318 319 322 323 322 322 323 321 318 320 321 322 321 320 319 319 319 321 322 322 323 323
320 321 322 322 321 322 319 325 326 323 317 318 321 314 310 309 312 314 316 316 319 316 320 321 322 322 321 321 320 320 318 318 320 319 319 318 318 319 319 320 321 322 321
319 320 320 321 322 320 322 322 324 324 321 317 320 318 320 318 311 310 315 315 318 317 321 316 318 321 321 320 319 318 316 316 317 317 316 317 317 317 317 318 319 319 320
320 318 320 320 321 320 322 322 322 323 324 319 318 320 319 317 316 312 309 314 315 317 315 315 316 319 319 318 319 317 315 314 314 314 314 315 315 316 316 315 317 317 318
315 318 319 320 321 322 321 321 322 322 322 321 320 321 319 315 315 314 311 313 312 312 315 317 317 318 318 318 317 315 314 312 312 312 312 312 312 313 314 314 315 315 316
314 318 320 320 319 320 320 321 321 320 321 320 321 320 320 319 317 318 314 311 309 311 314 316 316 316 315 315 315 313 314 310 311 311 310 310 310 310 311 312 312 313 313
315 318 318 319 318 319 319 319 317 318 320 321 319 320 317 316 314 317 316 311 306 309 311 312 315 313 314 314 312 312 313 310 310 310 309 308 308 309 309 309 309 310 311
314 315 317 317 317 317 317 317 315 315 318 320 320 320 317 315 317 320 317 313 307 304 305 314 311 313 311 311 310 310 310 310 309 310 308 307 307 308 308 308 308 308 308
315 315 315 315 316 316 315 316 313 313 314 314 316 315 316 316 317 318 316 313 313 311 303 310 310 311 310 309 309 310 310 310 309 310 309 308 308 307 307 307 307 307 307
313 312 312 311 311 313 314 314 311 312 311 313 316 315 316 317 315 316 314 315 316 310 305 309 310 310 309 307 308 310 312 313 312 310 310 309 308 308 307 307 307 307 307
311 311 312 311 311 310 313 313 312 313 312 312 313 315 314 313 315 316 316 315 313 312 307 305 306 307 307 308 309 311 312 310 312 311 311 310 309 309 308 307 307 307 307
309 311 311 311 310 311 311 311 312 312 313 313 313 313 314 314 313 314 315 314 314 310 307 304 304 308 308 307 308 312 313 315 313 313 313 313 312 310 309 308 308 307 306
309 309 310 310 311 310 309 310 311 311 312 312 314 314 313 313 311 312 312 311 310 308 307 306 308 309 310 309 308 308 309 313 312 312 314 312 312 311 310 309 308 306 304
309 310 310 311 311 309 307 308 311 311 312 312 313 313 313 312 310 310 310 311 309 308 308 309 311 311 308 308 309 311 310 311 312 314 311 313 313 309 308 309 309 304 301
310 310 310 310 310 309 303 304 308 309 310 310 310 313 313 311 310 308 307 308 308 309 310 312 314 311 311 313 312 311 311 309 305 316 312 310 315 311 313 311 306 303 301
307 306 307 310 310 309 302 303 305 310 309 311 311 311 311 312 311 309 310 308 308 307 308 313 312 311 311 313 314 313 313 314 312 314 315 309 311 310 312 312 305 304 301
311 307 307 308 308 306 301 301 304 309 309 310 312 313 313 313 312 311 314 314 314 313 314 314 317 316 315 314 313 314 315 317 319 314 317 308 313 311 314 316 306 304 301
310 309 310 311 311 310 300 300 307 310 311 313 314 314 314 312 301 302 311 314 314 314 307 308 308 305 304 303 305 310 311 311 308 310 312 310 310 310 312 314 313 305 302
312 312 313 314 306 311 298 299 302 313 314 314 315 313 303 305 300 300 313 316 313 313 316 317 318 314 307 313 305 313 315 311 310 308 315 309 311 310 307 314 313 310 309
Wind_Speed
10 10 9 9 8 7 9 8 9 9 8 10 12 7 8 10 8 6 6 8 7 2 5 5 2 4 6 7 8 9 11 10 8 6 6 5 7 9 11 10 12 10 10
7 7 5 5 6 7 7 5 5 7 7 10 11 7 8 9 7 7 6 3 10 7 2 3 5 4 6 7 8 9 9 7 6 5 6 8 9 10 10 12 11 11 11
6 7 5 5 2 2 4 3 4 5 6 8 10 9 9 8 8 7 6 7 8 10 8 6 3 3 5 7 10 9 7 6 5 7 8 9 9 10 12 13 12 12 11
4 5 4 4 4 3 3 2 4 4 4 5 5 7 8 10 9 6 7 4 7 0 8 6 5 2 3 5 7 9 6 5 7 7 8 10 11 11 12 13 13 13 13
4 3 3 3 2 2 3 3 4 4 4 3 6 8 10 9 6 7 5 5 8 5 5 8 7 5 2 3 5 7 8 7 7 7 9 10 13 14 13 14 14 14 14
8 5 6 7 6 6 5 7 7 5 5 6 8 10 8 5 6 5 3 5 4 6 7 2 3 5 3 3 6 7 7 8 8 7 8 10 13 15 15 15 15 14 14
10 7 9 8 6 9 9 9 7 8 8 9 10 9 8 7 5 6 3 3 5 5 5 7 2 3 5 6 5 5 8 11 11 9 8 10 12 15 15 15 15 15 14
10 11 10 8 9 8 11 7 9 7 8 4 7 9 7 2 0 6 2 3 3 4 3 3 6 6 6 1 4 3 8 11 12 11 11 12 14 15 16 16 15 14 13
7 6 9 7 10 9 6 5 7 9 9 7 7 6 4 2 4 3 4 2 2 3 2 2 1 1 4 7 5 4 9 10 11 11 11 12 14 16 16 15 15 14 13
5 11 7 11 9 10 10 7 5 6 8 8 2 4 8 6 3 1 1 4 4 2 3 4 5 3 1 3 5 7 9 11 11 10 11 12 13 15 16 16 16 15 15
4 9 6 9 8 7 9 8 7 6 5 5 4 3 4 4 5 4 4 3 3 3 4 5 5 4 3 3 3 6 9 9 10 7 9 11 13 14 14 15 16 15 15
8 6 7 9 7 7 6 6 6 6 6 6 5 2 3 3 3 3 3 2 4 4 4 5 5 5 3 6 5 10 8 8 8 7 8 10 12 13 14 15 15 14 14
9 10 9 8 7 7 6 7 6 6 6 7 5 1 2 3 5 1 2 2 4 3 2 5 5 5 5 6 6 10 9 6 8 6 7 8 10 11 12 14 15 15 14
8 10 8 7 7 7 7 7 7 7 6 4 5 2 3 1 4 3 2 4 7 1 1 4 5 4 5 5 7 10 7 6 5 5 4 6 8 10 12 13 15 17 16
10 11 7 6 7 7 8 7 7 8 6 5 4 2 3 3 3 2 3 4 6 5 6 3 2 6 6 4 6 7 6 7 5 5 3 4 6 8 10 12 13 14 16
9 9 8 8 7 7 7 6 7 7 7 6 4 0 3 3 3 2 4 4 5 5 5 5 6 6 5 2 5 6 8 8 8 8 5 5 6 7 9 10 11 13 14
9 6 7 9 8 7 5 4 4 5 4 4 4 4 3 4 3 2 4 3 3 2 6 5 6 4 3 3 5 7 8 6 4 11 8 7 8 10 10 10 10 11 12
7 7 6 6 5 5 6 5 3 3 4 5 5 5 5 5 5 5 3 8 6 7 5 6 2 2 2 2 8 7 5 3 6 12 13 11 10 11 11 11 10 12 13
7 7 10 8 6 7 8 8 7 8 6 6 5 7 8 11 9 8 8 7 5 5 3 1 3 2 3 1 5 5 6 5 3 9 17 13 13 11 9 10 8 9 7
6 7 7 6 8 7 8 10 10 7 7 5 5 5 7 9 9 9 7 8 6 3 2 3 5 4 2 3 5 5 3 5 4 3 5 5 11 12 9 10 9 5 4
6 6 6 7 6 7 9 11 11 9 7 7 7 9 10 10 9 8 6 5 5 2 4 5 5 3 2 2 2 3 4 3 4 5 2 3 4 5 7 11 9 5 1
11 11 10 9 9 8 9 10 10 6 9 7 6 7 8 7 5 4 5 4 4 5 5 4 3 5 4 3 3 6 6 6 4 2 3 4 4 3 5 10 8 6 3
7 9 10 10 9 9 11 10 12 6 4 5 7 5 5 5 5 5 2 8 7 7 8 7 7 6 6 6 7 7 7 5 5 6 3 5 2 5 4 5 11 10 6
8 4 6 7 6 6 7 6 3 5 5 5 5 5 5 5 6 8 9 5 3 3 2 4 7 7 7 8 8 9 11 8 6 2 6 3 4 6 4 3 13 12 11
4 5 5 6 4 10 6 7 7 6 5 5 4 5 6 8 8 8 10 5 6 3 6 8 8 8 9 8 9 6 6 8 6 4 6 5 5 9 1 4 8 12 14
7 4 5 5 3 10 6 5 4 2 3 4 5 8 5 6 8 9 9 7 7 9 12 11 3 8 12 10 14 8 5 6 7 4 1 6 4 4 4 4 5 7 8
Wind_Direction
4 5 9 25 20 20 19 14 2 359 326 308 292 316 312 304 314 300 311 123 111 12 7 47 28 41 11 10 7 355 352 345 331 347 1 10 353 349 339 336 336 335 326
356 -0 7 15 13 10 5 0 348 323 312 306 301 301 298 295 307 298 316 188 155 159 133 27 18 3 1 353 360 5 3 353 16 31 11 8 1 348 344 343 337 328 323
360 348 332 320 325 1 0 352 324 310 293 285 323 305 311 287 275 289 301 294 152 177 173 147 92 9 353 358 356 3 12 3 22 23 16 2 360 353 343 339 338 340 344
1 338 352 335 306 234 201 194 269 299 298 306 313 305 284 285 275 302 263 334 310 11 162 151 124 81 3 2 358 0 9 18 18 16 13 1 357 348 340 336 331 330 326
276 249 248 257 238 242 217 233 217 224 294 297 285 267 258 269 274 279 344 288 280 248 107 165 170 153 136 28 8 9 360 5 6 4 3 1 352 346 339 331 323 321 321
304 271 274 246 234 245 223 230 233 221 242 263 266 267 282 274 290 271 271 275 293 341 297 41 195 152 89 69 34 12 354 5 354 357 3 358 351 341 334 334 325 321 319
324 297 302 315 244 233 234 235 221 229 230 230 249 260 247 224 234 259 215 0 37 310 358 11 327 185 161 123 68 26 3 5 348 360 3 1 343 338 333 325 326 325 320
339 331 341 319 312 318 298 262 247 245 245 257 263 292 293 111 352 248 214 272 71 301 45 18 21 326 319 194 133 61 32 1 356 357 4 356 346 338 339 332 325 317 318
326 278 298 297 300 293 299 303 276 234 244 237 240 273 282 292 216 163 265 219 169 305 197 218 231 351 346 335 341 63 29 6 357 351 352 354 343 340 343 340 334 326 321
298 309 326 305 315 303 303 325 285 249 260 278 249 295 306 336 319 298 235 112 246 310 210 284 182 157 229 343 330 45 28 5 359 355 346 349 346 347 348 340 344 344 339
295 278 322 307 310 303 309 307 303 268 276 275 295 285 265 287 290 308 280 324 276 274 276 317 332 80 89 320 2 59 33 5 351 2 353 350 347 351 353 349 345 342 339
325 358 339 318 319 318 327 328 325 296 280 265 260 259 266 259 239 255 287 311 287 260 297 306 77 63 22 33 35 4 14 10 3 6 6 1 351 344 346 349 347 341 337
343 346 333 327 335 337 346 350 342 336 293 274 276 292 230 246 225 84 317 301 267 289 308 67 46 50 14 0 14 9 345 22 359 11 19 10 4 355 350 353 348 348 343
340 332 336 348 0 14 20 8 14 347 318 302 295 272 260 261 357 21 296 305 300 341 185 36 70 45 13 4 4 351 337 10 359 358 10 16 9 5 1 356 359 357 353
332 345 344 4 24 36 42 25 35 20 22 25 36 69 301 26 33 355 311 283 313 325 313 84 73 53 19 3 15 324 314 308 299 282 317 351 352 355 349 348 351 354 357
347 1 26 29 37 36 37 36 47 35 19 24 24 3 286 333 356 270 248 308 8 334 302 22 28 14 7 2 312 303 291 277 252 249 266 286 309 320 326 334 336 343 346
8 346 32 33 27 18 31 63 55 21 23 325 342 310 280 232 5 344 313 14 359 5 326 4 11 338 353 308 304 290 268 252 232 232 243 264 283 284 286 298 309 320 332
352 343 25 22 39 347 336 342 357 19 346 342 352 5 22 17 344 29 335 11 28 47 15 340 321 324 257 294 290 275 264 268 189 215 229 234 243 253 253 266 288 309 321
11 8 339 7 13 7 7 344 342 344 348 324 339 355 2 33 27 15 22 21 34 40 30 315 293 236 247 289 293 261 267 264 288 233 224 220 233 230 238 254 268 294 338
5 334 10 15 22 26 22 2 359 356 348 346 5 344 53 32 15 3 38 30 23 8 328 281 290 276 256 200 257 282 275 241 249 292 249 201 217 226 223 248 257 273 352
18 349 34 40 24 46 29 358 357 12 10 32 7 47 50 52 41 24 1 18 21 341 301 279 286 174 96 217 194 247 292 322 266 263 45 239 240 205 220 236 239 178 41
24 26 18 17 26 47 9 3 351 2 24 22 25 31 31 30 38 61 35 20 349 330 306 338 343 47 50 33 1 339 343 352 350 35 11 310 238 226 196 218 144 160 187
30 28 19 19 27 36 10 7 353 58 59 49 36 32 37 50 27 2 306 250 248 250 263 307 358 25 12 10 344 338 338 327 308 306 328 333 153 242 212 129 166 188 191
32 27 12 19 24 40 12 4 26 52 52 57 50 39 30 38 37 349 317 276 134 146 262 337 351 357 353 347 339 319 306 300 271 273 307 350 334 302 51 158 184 190 192
23 15 19 28 27 61 24 1 7 30 54 59 46 49 342 56 13 342 309 32 55 51 185 222 243 249 249 246 247 292 336 347 359 12 355 7 331 339 27 164 196 199 206
55 81 88 58 63 71 60 3 341 315 100 112 123 107 67 24 343 342 343 354 7 13 341 338 245 261 254 241 230 242 304 318 322 334 34 339 291 4 324 11 153 177 223